UAE323 RKSI-OMDB

Flight info

Callsign UAE323
Flight time N/A
Altitude 32000
Route BOPTA3H BOPTA Z51 BEDES Y711 PONIK A593 LAMEN/K0922F320 A593 AKARA/K0924S0975 A593 PK R343 MADUK W51 LEGIV W164 ADGOL W50 XSH W80 IDGAG A581 QNX W136 XISLI A581 SGM A599 LINSO/N0506F320 A599 CTG B465 CEA A791 BPL L639 RASKI L301 RAGMA N571 VUSET A454 PASOV B540 MIVEK P574 IMPED
Aircraft B77W/H-SDE1E2E3FGHIJ2J3J4J5M1RWXY/LB1D1

Departure

Time N/A
Airport Incheon International Airport (RKSI)

Arrival

Time 2026-04-25 11:10
Airport Dubai International Airport (OMDB)
Time Latitude Longitude Altitude Speed Heading
2026-04-25 05:47 23.06981 98.01349 33884 ft 442 kts 253°
2026-04-25 05:48 23.04848 97.95104 33881 ft 441 kts 253°
2026-04-25 05:48 23.02717 97.88872 33884 ft 441 kts 253°
2026-04-25 05:49 23.00582 97.82637 33874 ft 440 kts 253°
2026-04-25 05:49 22.98599 97.76359 33875 ft 438 kts 258°
2026-04-25 05:50 22.97478 97.69893 33875 ft 435 kts 265°
2026-04-25 05:50 22.96824 97.63352 33864 ft 436 kts 265°
2026-04-25 05:51 22.96160 97.56807 33868 ft 436 kts 265°
2026-04-25 05:51 22.95482 97.50265 33870 ft 437 kts 265°
2026-04-25 05:52 22.94795 97.43715 33865 ft 437 kts 265°
2026-04-25 05:52 22.94103 97.37161 33887 ft 437 kts 265°
2026-04-25 05:53 22.93417 97.30675 33888 ft 436 kts 265°
2026-04-25 05:53 22.92723 97.24144 33889 ft 436 kts 265°
2026-04-25 05:54 22.92024 97.17621 33897 ft 433 kts 265°
2026-04-25 05:54 22.90981 97.07882 33894 ft 434 kts 265°
2026-04-25 05:55 22.90279 97.01368 33898 ft 435 kts 265°
2026-04-25 05:55 22.89572 96.94841 33908 ft 437 kts 265°
2026-04-25 05:56 22.88862 96.88284 33884 ft 437 kts 265°
2026-04-25 05:56 22.88151 96.81756 33890 ft 435 kts 265°
2026-04-25 05:57 22.87438 96.75254 33876 ft 434 kts 265°
2026-04-25 05:57 22.86724 96.68761 33881 ft 433 kts 265°
2026-04-25 05:58 22.86009 96.62276 33880 ft 433 kts 265°
2026-04-25 05:58 22.85292 96.55796 33879 ft 433 kts 265°
2026-04-25 05:59 22.84571 96.49303 33870 ft 434 kts 265°
2026-04-25 05:59 22.83848 96.42806 33864 ft 435 kts 265°
2026-04-25 06:00 22.83119 96.36292 33861 ft 435 kts 265°
2026-04-25 06:00 22.82388 96.29784 33853 ft 434 kts 265°
2026-04-25 06:01 22.81656 96.23296 33849 ft 434 kts 265°
2026-04-25 06:01 22.80918 96.16802 33841 ft 435 kts 265°
2026-04-25 06:02 22.80179 96.10299 33836 ft 435 kts 265°
2026-04-25 06:02 22.79439 96.03798 33825 ft 435 kts 265°
2026-04-25 06:03 22.78701 95.97343 33820 ft 434 kts 265°
2026-04-25 06:03 22.77956 95.90854 33812 ft 434 kts 265°
2026-04-25 06:04 22.77209 95.84375 33816 ft 433 kts 265°
2026-04-25 06:04 22.76459 95.77900 33816 ft 433 kts 265°
2026-04-25 06:05 22.75708 95.71432 33814 ft 432 kts 265°
2026-04-25 06:05 22.74960 95.64971 33810 ft 432 kts 267°
2026-04-25 06:06 22.74345 95.59604 33813 ft 432 kts 265°
2026-04-25 06:06 22.73579 95.53157 33828 ft 432 kts 265°
2026-04-25 06:07 22.72690 95.45665 33825 ft 432 kts 265°
2026-04-25 06:07 22.72049 95.40244 33828 ft 432 kts 265°
2026-04-25 06:08 22.71284 95.33784 33826 ft 432 kts 265°
2026-04-25 06:08 22.70517 95.27336 33829 ft 433 kts 265°
2026-04-25 06:09 22.69745 95.20860 33831 ft 433 kts 265°
2026-04-25 06:09 22.68976 95.14437 33830 ft 433 kts 265°
2026-04-25 06:10 22.68194 95.07935 33833 ft 433 kts 265°
2026-04-25 06:10 22.67414 95.01464 33830 ft 433 kts 265°
2026-04-25 06:11 22.66630 94.94989 33831 ft 434 kts 265°
2026-04-25 06:11 22.65849 94.88557 33828 ft 434 kts 265°
2026-04-25 06:12 22.65061 94.82085 33833 ft 434 kts 265°
2026-04-25 06:12 22.64268 94.75601 33836 ft 434 kts 265°
2026-04-25 06:13 22.63475 94.69133 33840 ft 434 kts 265°
2026-04-25 06:14 22.62278 94.59422 33849 ft 434 kts 265°
2026-04-25 06:14 22.61477 94.52942 33841 ft 434 kts 265°
2026-04-25 06:15 22.60672 94.46461 33839 ft 434 kts 265°
2026-04-25 06:15 22.59867 94.39995 33857 ft 434 kts 265°
2026-04-25 06:16 22.59059 94.33523 33837 ft 434 kts 264°
2026-04-25 06:16 22.58254 94.27111 33841 ft 433 kts 264°
2026-04-25 06:17 22.57572 94.21700 33856 ft 433 kts 264°
2026-04-25 06:18 22.54970 94.01123 33863 ft 434 kts 264°
2026-04-25 06:19 22.54151 93.94701 33871 ft 434 kts 264°
2026-04-25 06:19 22.53322 93.88223 33877 ft 435 kts 264°
2026-04-25 06:20 22.52492 93.81748 33891 ft 434 kts 264°
2026-04-25 06:20 22.51659 93.75276 33903 ft 435 kts 264°
2026-04-25 06:21 22.50823 93.68801 33908 ft 434 kts 264°
2026-04-25 06:21 22.49986 93.62337 33920 ft 434 kts 264°
2026-04-25 06:22 22.49147 93.55883 33939 ft 433 kts 264°
2026-04-25 06:22 22.48305 93.49430 33936 ft 433 kts 264°
2026-04-25 06:23 22.47463 93.42987 33936 ft 433 kts 264°
2026-04-25 06:23 22.46617 93.36521 33937 ft 434 kts 264°
2026-04-25 06:24 22.45765 93.30051 33939 ft 436 kts 264°
2026-04-25 06:24 22.44914 93.23605 33929 ft 436 kts 264°
2026-04-25 06:25 22.44055 93.17119 33925 ft 436 kts 264°
2026-04-25 06:25 22.43193 93.10633 33890 ft 435 kts 264°
2026-04-25 06:26 22.42333 93.04177 33908 ft 434 kts 264°
2026-04-25 06:26 22.41469 92.97714 33897 ft 435 kts 264°
2026-04-25 06:27 22.40602 92.91248 33889 ft 434 kts 264°
2026-04-25 06:27 22.39736 92.84808 33899 ft 433 kts 264°
2026-04-25 06:28 22.38869 92.78369 33890 ft 434 kts 263°
2026-04-25 06:28 22.38003 92.71953 33892 ft 435 kts 263°
2026-04-25 06:29 22.37127 92.65490 33869 ft 435 kts 263°
2026-04-25 06:29 22.36252 92.59035 33870 ft 434 kts 263°
2026-04-25 06:30 22.35376 92.52588 33871 ft 433 kts 263°
2026-04-25 06:30 22.34498 92.46149 33885 ft 433 kts 263°
2026-04-25 06:31 22.33617 92.39704 33867 ft 433 kts 263°
2026-04-25 06:31 22.32734 92.33265 33880 ft 434 kts 263°
2026-04-25 06:32 22.31847 92.26821 33869 ft 434 kts 263°
2026-04-25 06:32 22.30965 92.20368 33872 ft 434 kts 263°
2026-04-25 06:33 22.30086 92.13921 33876 ft 434 kts 263°
2026-04-25 06:33 22.29209 92.07518 33879 ft 434 kts 263°
2026-04-25 06:34 22.28324 92.01071 33879 ft 434 kts 263°
2026-04-25 06:34 22.27437 91.94626 33885 ft 434 kts 263°
2026-04-25 06:35 22.26547 91.88191 33884 ft 434 kts 263°
2026-04-25 06:35 22.26160 91.81712 33883 ft 433 kts 271°
2026-04-25 06:36 22.26620 91.75238 33897 ft 433 kts 276°
2026-04-25 06:36 22.27390 91.68793 33886 ft 433 kts 276°
2026-04-25 06:37 22.28148 91.62336 33883 ft 433 kts 276°
2026-04-25 06:37 22.28887 91.55880 33884 ft 433 kts 276°
2026-04-25 06:38 22.29621 91.49416 33885 ft 433 kts 276°
2026-04-25 06:38 22.30352 91.42958 33887 ft 433 kts 276°
2026-04-25 06:39 22.31086 91.36499 33881 ft 433 kts 276°
2026-04-25 06:39 22.31881 91.30043 33881 ft 433 kts 277°
2026-04-25 06:40 22.32692 91.23600 33885 ft 433 kts 277°
2026-04-25 06:40 22.33490 91.17192 33877 ft 433 kts 277°
2026-04-25 06:41 22.34283 91.10756 33878 ft 433 kts 276°
2026-04-25 06:41 22.35074 91.04311 33873 ft 433 kts 276°
2026-04-25 06:42 22.35861 90.97868 33873 ft 433 kts 276°
2026-04-25 06:42 22.36645 90.91423 33870 ft 432 kts 276°
2026-04-25 06:43 22.37427 90.84984 33871 ft 432 kts 276°
2026-04-25 06:43 22.38206 90.78544 33871 ft 432 kts 276°
2026-04-25 06:44 22.38983 90.72100 33866 ft 432 kts 276°
2026-04-25 06:44 22.39757 90.65665 33866 ft 432 kts 276°
2026-04-25 06:45 22.40527 90.59229 33863 ft 432 kts 276°
2026-04-25 06:45 22.41295 90.52791 33860 ft 432 kts 276°
2026-04-25 06:46 22.42060 90.46361 33857 ft 431 kts 276°
2026-04-25 06:46 22.42822 90.39927 33854 ft 431 kts 276°
2026-04-25 06:47 22.43582 90.33501 33855 ft 431 kts 276°
2026-04-25 06:47 22.44333 90.27114 33853 ft 431 kts 276°
2026-04-25 06:48 22.45088 90.20681 33853 ft 431 kts 276°
2026-04-25 06:48 22.45839 90.14253 33850 ft 431 kts 276°
2026-04-25 06:49 22.46588 90.07829 33846 ft 431 kts 276°
2026-04-25 06:49 22.47208 90.02487 33847 ft 430 kts 276°
2026-04-25 06:50 22.48076 89.94983 33843 ft 430 kts 276°
2026-04-25 06:50 22.48815 89.88571 33842 ft 430 kts 276°
2026-04-25 06:51 22.49428 89.83236 33842 ft 430 kts 276°
2026-04-25 06:51 22.50162 89.76822 33837 ft 430 kts 276°
2026-04-25 06:52 22.50893 89.70418 33833 ft 429 kts 276°
2026-04-25 06:52 22.51622 89.64011 33834 ft 429 kts 276°
2026-04-25 06:53 22.52346 89.57613 33831 ft 428 kts 276°
2026-04-25 06:53 22.53068 89.51218 33832 ft 428 kts 275°
2026-04-25 06:54 22.53786 89.44834 33833 ft 428 kts 275°
2026-04-25 06:54 22.54498 89.38485 33833 ft 428 kts 275°
2026-04-25 06:55 22.55212 89.32091 33834 ft 428 kts 275°
2026-04-25 06:55 22.55923 89.25698 33832 ft 428 kts 275°
2026-04-25 06:56 22.56631 89.19308 33831 ft 428 kts 275°
2026-04-25 06:56 22.57338 89.12910 33830 ft 428 kts 275°
2026-04-25 06:57 22.58041 89.06520 33828 ft 427 kts 275°
2026-04-25 06:57 22.58741 89.00140 33828 ft 427 kts 275°
2026-04-25 06:58 22.59458 88.93757 33828 ft 427 kts 277°
2026-04-25 06:58 22.60503 88.87419 33833 ft 428 kts 278°
2026-04-25 06:59 22.61596 88.81092 33831 ft 427 kts 278°
2026-04-25 06:59 22.62676 88.74761 33833 ft 427 kts 278°
2026-04-25 07:00 22.63744 88.68426 33831 ft 427 kts 278°
2026-04-25 07:00 22.64799 88.62147 33825 ft 427 kts 278°
2026-04-25 07:01 22.65858 88.55825 33828 ft 427 kts 278°
2026-04-25 07:01 22.66917 88.49500 33826 ft 426 kts 278°
2026-04-25 07:02 22.67845 88.43163 33828 ft 425 kts 273°
2026-04-25 07:02 22.68252 88.36790 33835 ft 424 kts 273°
2026-04-25 07:03 22.68659 88.30419 33828 ft 424 kts 273°
2026-04-25 07:03 22.69075 88.24046 33830 ft 424 kts 273°
2026-04-25 07:04 22.69491 88.17670 33825 ft 424 kts 273°
2026-04-25 07:04 22.69906 88.11296 33824 ft 424 kts 273°
2026-04-25 07:05 22.70319 88.04920 33816 ft 424 kts 273°
2026-04-25 07:05 22.70726 87.98593 33817 ft 424 kts 273°
2026-04-25 07:06 22.71133 87.92212 33814 ft 424 kts 272°
2026-04-25 07:06 22.71537 87.85845 33813 ft 424 kts 272°
2026-04-25 07:07 22.71939 87.79470 33812 ft 424 kts 272°
2026-04-25 07:07 22.72338 87.73096 33813 ft 424 kts 272°
2026-04-25 07:08 22.72735 87.66719 33809 ft 424 kts 272°
2026-04-25 07:08 22.73129 87.60349 33809 ft 424 kts 272°
2026-04-25 07:09 22.73520 87.53982 33808 ft 423 kts 272°
2026-04-25 07:09 22.73909 87.47620 33809 ft 423 kts 272°
2026-04-25 07:10 22.74295 87.41253 33808 ft 423 kts 272°
2026-04-25 07:10 22.74678 87.34897 33803 ft 423 kts 272°
2026-04-25 07:11 22.75058 87.28541 33799 ft 423 kts 272°
2026-04-25 07:11 22.75436 87.22181 33811 ft 423 kts 272°
2026-04-25 07:12 22.75809 87.15862 33809 ft 423 kts 272°
2026-04-25 07:12 22.76368 87.06319 33814 ft 423 kts 272°
2026-04-25 07:13 22.76737 86.99965 33820 ft 423 kts 272°
2026-04-25 07:13 22.77104 86.93604 33820 ft 423 kts 272°
2026-04-25 07:14 22.77468 86.87246 33829 ft 422 kts 272°
2026-04-25 07:14 22.77829 86.80898 33832 ft 422 kts 272°
2026-04-25 07:15 22.78187 86.74546 33830 ft 422 kts 272°
2026-04-25 07:15 22.78543 86.68200 33846 ft 422 kts 271°
2026-04-25 07:16 22.78897 86.61848 33841 ft 422 kts 271°
2026-04-25 07:16 22.79245 86.55547 33841 ft 422 kts 271°
2026-04-25 07:17 22.79593 86.49204 33842 ft 422 kts 271°
2026-04-25 07:17 22.79938 86.42855 33830 ft 422 kts 271°
2026-04-25 07:18 22.80281 86.36517 33824 ft 421 kts 271°
2026-04-25 07:18 22.80623 86.30168 33811 ft 421 kts 271°
2026-04-25 07:19 22.80960 86.23833 33806 ft 421 kts 271°
2026-04-25 07:19 22.81295 86.17502 33803 ft 421 kts 271°
2026-04-25 07:20 22.81760 86.11171 33799 ft 421 kts 273°
2026-04-25 07:20 22.82316 86.04854 33808 ft 421 kts 273°
2026-04-25 07:21 22.82861 85.98538 33832 ft 421 kts 273°
2026-04-25 07:21 22.83387 85.92217 33846 ft 421 kts 272°
2026-04-25 07:22 22.83904 85.85902 33878 ft 421 kts 272°
2026-04-25 07:22 22.84418 85.79585 33895 ft 421 kts 272°
2026-04-25 07:23 22.84926 85.73305 33916 ft 420 kts 272°
2026-04-25 07:23 22.85435 85.66985 33909 ft 420 kts 272°
2026-04-25 07:24 22.85943 85.60667 33926 ft 421 kts 272°
2026-04-25 07:24 22.86448 85.54333 33930 ft 422 kts 272°
2026-04-25 07:25 22.86950 85.47996 33922 ft 422 kts 272°
2026-04-25 07:25 22.87452 85.41661 33927 ft 421 kts 272°
2026-04-25 07:26 22.87949 85.35342 33930 ft 421 kts 272°
2026-04-25 07:26 22.88443 85.29025 33927 ft 421 kts 272°
2026-04-25 07:27 22.88935 85.22694 33929 ft 421 kts 272°
2026-04-25 07:27 22.89425 85.16372 33929 ft 421 kts 272°
2026-04-25 07:28 22.89910 85.10084 33929 ft 421 kts 272°
2026-04-25 07:28 22.90396 85.03753 33922 ft 422 kts 272°
2026-04-25 07:29 22.90881 84.97416 33931 ft 421 kts 272°
2026-04-25 07:29 22.91363 84.91082 33920 ft 422 kts 272°
2026-04-25 07:30 22.91843 84.84732 33926 ft 422 kts 272°
2026-04-25 07:30 22.92319 84.78420 33925 ft 423 kts 272°
2026-04-25 07:31 22.92794 84.72059 33925 ft 423 kts 272°
2026-04-25 07:31 22.93268 84.65700 33927 ft 423 kts 272°
2026-04-25 07:32 22.93740 84.59318 33925 ft 424 kts 272°
2026-04-25 07:32 22.94211 84.52937 33931 ft 424 kts 272°
2026-04-25 07:33 22.94678 84.46552 33922 ft 424 kts 272°
2026-04-25 07:33 22.95143 84.40160 33931 ft 425 kts 272°
2026-04-25 07:34 22.95606 84.33771 33920 ft 425 kts 272°
2026-04-25 07:34 22.96067 84.27379 33927 ft 425 kts 272°
2026-04-25 07:35 22.96524 84.20994 33924 ft 424 kts 272°
2026-04-25 07:35 22.96976 84.14653 33918 ft 424 kts 272°
2026-04-25 07:36 22.97385 84.08269 33920 ft 423 kts 271°
2026-04-25 07:36 22.97721 84.01901 33914 ft 423 kts 271°
2026-04-25 07:37 22.98053 83.95526 33978 ft 425 kts 271°
2026-04-25 07:37 22.98221 83.92324 34203 ft 425 kts 270°
2026-04-25 07:37 22.98391 83.89131 34479 ft 423 kts 270°
2026-04-25 07:38 22.98504 83.87019 34662 ft 422 kts 270°
2026-04-25 07:38 22.98673 83.83848 34915 ft 421 kts 270°
2026-04-25 07:38 22.98843 83.80675 35153 ft 420 kts 270°
2026-04-25 07:38 22.99011 83.77513 35377 ft 420 kts 270°
2026-04-25 07:39 22.99231 83.73321 35667 ft 420 kts 270°
2026-04-25 07:39 22.99343 83.71183 35787 ft 420 kts 270°
2026-04-25 07:39 22.99674 83.64825 35869 ft 421 kts 270°
2026-04-25 07:40 23.00002 83.58522 35890 ft 416 kts 270°
2026-04-25 07:40 23.00324 83.52265 35878 ft 415 kts 270°
2026-04-25 07:41 23.00644 83.46010 35878 ft 415 kts 270°
2026-04-25 07:41 23.00960 83.39759 35874 ft 415 kts 270°
2026-04-25 07:42 23.01272 83.33536 35863 ft 415 kts 270°
2026-04-25 07:42 23.01585 83.27269 35866 ft 417 kts 270°
2026-04-25 07:43 23.01895 83.20981 35860 ft 417 kts 270°
2026-04-25 07:43 23.02205 83.14683 35853 ft 418 kts 270°
2026-04-25 07:44 23.02512 83.08379 35851 ft 418 kts 270°
2026-04-25 07:44 23.02817 83.02072 35840 ft 418 kts 270°
2026-04-25 07:45 23.03119 82.95762 35834 ft 418 kts 270°
2026-04-25 07:45 23.03418 82.89457 35835 ft 418 kts 270°
2026-04-25 07:46 23.03715 82.83145 35831 ft 418 kts 270°
2026-04-25 07:46 23.04010 82.76840 35825 ft 418 kts 270°
2026-04-25 07:47 23.04302 82.70528 35823 ft 418 kts 270°
2026-04-25 07:47 23.04589 82.64265 35820 ft 418 kts 270°
2026-04-25 07:48 23.04876 82.57958 35824 ft 418 kts 270°
2026-04-25 07:48 23.05161 82.51655 35815 ft 418 kts 270°
2026-04-25 07:49 23.05443 82.45338 35815 ft 419 kts 270°
2026-04-25 07:49 23.05723 82.39015 35820 ft 419 kts 270°
2026-04-25 07:50 23.06000 82.32690 35821 ft 420 kts 269°
2026-04-25 07:50 23.06276 82.26354 35821 ft 420 kts 269°
2026-04-25 07:51 23.06550 82.20012 35824 ft 420 kts 269°
2026-04-25 07:51 23.06845 82.13670 35819 ft 421 kts 270°
2026-04-25 07:52 23.07245 82.07326 35823 ft 422 kts 270°
2026-04-25 07:52 23.07660 82.00966 35835 ft 422 kts 270°
2026-04-25 07:53 23.08061 81.94605 35837 ft 422 kts 270°
2026-04-25 07:53 23.08454 81.88237 35835 ft 423 kts 270°
2026-04-25 07:54 23.08840 81.81902 35838 ft 423 kts 270°
2026-04-25 07:54 23.09228 81.75485 35843 ft 423 kts 270°
2026-04-25 07:55 23.09609 81.69143 35838 ft 424 kts 270°
2026-04-25 07:55 23.09990 81.62760 35842 ft 424 kts 270°
2026-04-25 07:56 23.10369 81.56371 35842 ft 424 kts 270°
2026-04-25 07:56 23.10746 81.49981 35840 ft 424 kts 270°
2026-04-25 07:57 23.11120 81.43592 35845 ft 424 kts 270°
2026-04-25 07:57 23.11491 81.37199 35848 ft 424 kts 270°
2026-04-25 07:58 23.11861 81.30795 35838 ft 424 kts 270°
2026-04-25 07:58 23.12227 81.24404 35858 ft 425 kts 270°
2026-04-25 07:59 23.12591 81.17991 35854 ft 426 kts 270°
2026-04-25 07:59 23.12955 81.11559 35859 ft 426 kts 270°
2026-04-25 08:00 23.13317 81.05127 35862 ft 427 kts 270°
2026-04-25 08:00 23.13674 80.98681 35863 ft 428 kts 270°
2026-04-25 08:01 23.14031 80.92226 35865 ft 428 kts 270°
2026-04-25 08:01 23.14384 80.85808 35868 ft 428 kts 270°
2026-04-25 08:02 23.14735 80.79343 35867 ft 429 kts 270°
2026-04-25 08:02 23.15086 80.72870 35868 ft 429 kts 270°
2026-04-25 08:03 23.15440 80.66398 35870 ft 429 kts 270°
2026-04-25 08:03 23.15791 80.59911 35870 ft 429 kts 270°
2026-04-25 08:04 23.16139 80.53436 35868 ft 430 kts 270°
2026-04-25 08:04 23.16485 80.46949 35870 ft 430 kts 270°
2026-04-25 08:05 23.16828 80.40454 35871 ft 430 kts 270°
2026-04-25 08:05 23.17169 80.33957 35879 ft 431 kts 270°
2026-04-25 08:06 23.17507 80.27445 35879 ft 432 kts 270°
2026-04-25 08:06 23.17844 80.20926 35884 ft 433 kts 270°
2026-04-25 08:07 23.18179 80.14397 35884 ft 433 kts 270°
2026-04-25 08:07 23.18512 80.07848 35883 ft 434 kts 270°
2026-04-25 08:08 23.18824 80.01290 35887 ft 434 kts 269°
2026-04-25 08:08 23.19104 79.94723 35884 ft 435 kts 269°
2026-04-25 08:09 23.19383 79.88152 35882 ft 436 kts 269°
2026-04-25 08:09 23.19662 79.81609 35877 ft 436 kts 269°
2026-04-25 08:10 23.19941 79.75021 35871 ft 437 kts 269°
2026-04-25 08:10 23.20219 79.68416 35871 ft 437 kts 269°
2026-04-25 08:11 23.20494 79.61806 35868 ft 438 kts 269°
2026-04-25 08:11 23.20757 79.55193 35868 ft 438 kts 269°
2026-04-25 08:12 23.20894 79.48570 35875 ft 438 kts 268°
2026-04-25 08:12 23.20994 79.41943 35867 ft 439 kts 268°
2026-04-25 08:13 23.21105 79.35304 35865 ft 440 kts 268°
2026-04-25 08:14 23.21281 79.25319 35868 ft 441 kts 268°
2026-04-25 08:14 23.21397 79.18650 35868 ft 442 kts 268°
2026-04-25 08:15 23.21511 79.11967 35867 ft 442 kts 268°
2026-04-25 08:15 23.21621 79.05274 35868 ft 443 kts 268°
2026-04-25 08:16 23.21728 78.98563 35865 ft 444 kts 268°
2026-04-25 08:16 23.21833 78.91846 35869 ft 445 kts 268°
2026-04-25 08:17 23.21935 78.85164 35862 ft 445 kts 268°
2026-04-25 08:17 23.22035 78.78424 35864 ft 446 kts 268°
2026-04-25 08:18 23.22153 78.71678 35868 ft 447 kts 269°
2026-04-25 08:18 23.22468 78.64923 35863 ft 448 kts 270°
2026-04-25 08:19 23.22835 78.58156 35862 ft 448 kts 270°
2026-04-25 08:19 23.23178 78.51382 35863 ft 449 kts 270°
2026-04-25 08:20 23.23501 78.44592 35861 ft 450 kts 270°
2026-04-25 08:20 23.23817 78.37799 35862 ft 450 kts 270°
2026-04-25 08:21 23.24130 78.30990 35859 ft 451 kts 270°
2026-04-25 08:21 23.24442 78.24175 35856 ft 452 kts 270°
2026-04-25 08:22 23.24751 78.17345 35860 ft 452 kts 270°
2026-04-25 08:22 23.25056 78.10545 35860 ft 453 kts 270°
2026-04-25 08:23 23.25361 78.03692 35858 ft 454 kts 270°
2026-04-25 08:23 23.25662 77.96826 35858 ft 455 kts 270°
2026-04-25 08:24 23.25962 77.89951 35862 ft 456 kts 270°
2026-04-25 08:24 23.26259 77.83059 35870 ft 456 kts 270°
2026-04-25 08:25 23.26553 77.76160 35861 ft 457 kts 270°
2026-04-25 08:25 23.26797 77.70423 35861 ft 458 kts 270°
2026-04-25 08:26 23.27087 77.63502 35862 ft 459 kts 270°
2026-04-25 08:26 23.27374 77.56574 35864 ft 460 kts 271°
2026-04-25 08:27 23.27659 77.49615 35868 ft 460 kts 271°
2026-04-25 08:27 23.27987 77.41521 35863 ft 462 kts 271°
2026-04-25 08:28 23.28221 77.35675 35861 ft 462 kts 270°
2026-04-25 08:28 23.28022 77.28748 35869 ft 461 kts 264°
2026-04-25 08:29 23.27498 77.21785 35867 ft 462 kts 264°
2026-04-25 08:29 23.26976 77.14814 35869 ft 463 kts 264°
2026-04-25 08:30 23.26471 77.07839 35873 ft 463 kts 264°
2026-04-25 08:30 23.25971 77.00850 35867 ft 464 kts 264°
2026-04-25 08:31 23.25469 76.93855 35869 ft 464 kts 264°
2026-04-25 08:31 23.24962 76.86846 35868 ft 465 kts 264°
2026-04-25 08:32 23.24451 76.79834 35872 ft 466 kts 264°
2026-04-25 08:32 23.23935 76.72809 35870 ft 466 kts 264°
2026-04-25 08:33 23.23415 76.65771 35872 ft 467 kts 264°
2026-04-25 08:33 23.22893 76.58736 35872 ft 467 kts 264°
2026-04-25 08:34 23.22366 76.51684 35875 ft 468 kts 264°
2026-04-25 08:34 23.21839 76.44679 35878 ft 469 kts 264°
2026-04-25 08:35 23.21305 76.37612 35878 ft 469 kts 264°
2026-04-25 08:35 23.20766 76.30532 35884 ft 470 kts 264°
2026-04-25 08:36 23.20224 76.23447 35884 ft 471 kts 264°
2026-04-25 08:36 23.19677 76.16342 35884 ft 472 kts 264°
2026-04-25 08:37 23.19127 76.09233 35889 ft 472 kts 265°
2026-04-25 08:37 23.18573 76.02117 35894 ft 473 kts 265°
2026-04-25 08:38 23.18283 75.94974 35902 ft 474 kts 269°
2026-04-25 08:38 23.18223 75.87809 35900 ft 475 kts 269°
2026-04-25 08:39 23.18166 75.80621 35905 ft 476 kts 269°
2026-04-25 08:39 23.18087 75.73426 35911 ft 476 kts 269°
2026-04-25 08:40 23.17993 75.66217 35907 ft 477 kts 269°
2026-04-25 08:40 23.17895 75.59002 35909 ft 478 kts 269°
2026-04-25 08:41 23.17795 75.51788 35908 ft 478 kts 269°
2026-04-25 08:41 23.17691 75.44565 35907 ft 478 kts 269°
2026-04-25 08:42 23.17585 75.37375 35908 ft 479 kts 269°
2026-04-25 08:42 23.17474 75.30141 35907 ft 479 kts 269°
2026-04-25 08:43 23.17362 75.22911 35908 ft 479 kts 269°
2026-04-25 08:43 23.17244 75.15667 35900 ft 479 kts 269°
2026-04-25 08:44 23.17124 75.08427 35902 ft 479 kts 269°
2026-04-25 08:44 23.17001 75.01189 35899 ft 479 kts 269°
2026-04-25 08:45 23.16874 74.93954 35893 ft 479 kts 269°
2026-04-25 08:45 23.16744 74.86714 35894 ft 479 kts 269°
2026-04-25 08:46 23.16611 74.79473 35894 ft 479 kts 269°
2026-04-25 08:46 23.16473 74.72227 35890 ft 480 kts 269°
2026-04-25 08:47 23.16334 74.64969 35890 ft 480 kts 270°
2026-04-25 08:47 23.16191 74.57753 35881 ft 481 kts 270°
2026-04-25 08:48 23.16043 74.50476 35879 ft 482 kts 269°
2026-04-25 08:48 23.15893 74.43195 35873 ft 482 kts 269°
2026-04-25 08:49 23.15739 74.35891 35874 ft 483 kts 269°
2026-04-25 08:49 23.15505 74.28587 35862 ft 484 kts 268°
2026-04-25 08:50 23.15140 74.21266 35863 ft 485 kts 268°
2026-04-25 08:50 23.14769 74.13995 35856 ft 485 kts 268°
2026-04-25 08:51 23.14409 74.06617 35853 ft 486 kts 268°
2026-04-25 08:51 23.14060 73.99333 35848 ft 486 kts 268°
2026-04-25 08:52 23.13706 73.91989 35846 ft 487 kts 268°
2026-04-25 08:52 23.13348 73.84651 35839 ft 487 kts 268°
2026-04-25 08:53 23.12984 73.77291 35834 ft 487 kts 268°
2026-04-25 08:53 23.12619 73.69949 35837 ft 487 kts 268°
2026-04-25 08:54 23.12250 73.62606 35834 ft 487 kts 268°
2026-04-25 08:54 23.11876 73.55241 35818 ft 488 kts 268°
2026-04-25 08:55 23.11499 73.47888 35817 ft 488 kts 268°
2026-04-25 08:55 23.11119 73.40537 35818 ft 488 kts 268°
2026-04-25 08:56 23.10736 73.33171 35809 ft 488 kts 268°
2026-04-25 08:56 23.10543 73.29492 35812 ft 488 kts 268°
2026-04-25 08:57 23.09950 73.18296 35807 ft 488 kts 268°
2026-04-25 08:57 23.09555 73.10933 35808 ft 488 kts 268°
2026-04-25 08:58 23.09160 73.03613 35804 ft 489 kts 268°
2026-04-25 08:58 23.08758 72.96240 35801 ft 489 kts 268°
2026-04-25 08:59 23.08353 72.88866 35799 ft 489 kts 268°
2026-04-25 08:59 23.07944 72.81481 35801 ft 490 kts 268°
2026-04-25 09:00 23.07602 72.75350 35800 ft 490 kts 268°
2026-04-25 09:00 23.07116 72.66707 35805 ft 490 kts 268°
2026-04-25 09:01 23.06475 72.59334 35804 ft 491 kts 263°
2026-04-25 09:01 23.05431 72.52003 35794 ft 492 kts 262°
2026-04-25 09:02 23.04358 72.44666 35803 ft 492 kts 263°
2026-04-25 09:02 23.03312 72.37363 35807 ft 492 kts 263°
2026-04-25 09:03 23.02268 72.29976 35804 ft 492 kts 263°
2026-04-25 09:03 23.01228 72.22630 35808 ft 492 kts 263°
2026-04-25 09:04 23.00184 72.15279 35812 ft 492 kts 263°
2026-04-25 09:04 22.99135 72.07935 35814 ft 492 kts 263°
2026-04-25 09:05 22.98083 72.00592 35815 ft 492 kts 263°
2026-04-25 09:05 22.97028 71.93255 35819 ft 492 kts 263°
2026-04-25 09:06 22.95976 71.85963 35817 ft 492 kts 263°
2026-04-25 09:06 22.94914 71.78624 35825 ft 492 kts 263°
2026-04-25 09:07 22.93852 71.71302 35826 ft 492 kts 263°
2026-04-25 09:07 22.92783 71.63969 35834 ft 491 kts 263°
2026-04-25 09:08 22.91715 71.56663 35845 ft 491 kts 263°
2026-04-25 09:08 22.90815 71.50520 35822 ft 491 kts 263°
2026-04-25 09:09 22.89739 71.43207 35823 ft 491 kts 262°
2026-04-25 09:09 22.88660 71.35895 35826 ft 491 kts 262°
2026-04-25 09:10 22.87579 71.28585 35828 ft 491 kts 262°
2026-04-25 09:10 22.86501 71.21327 35832 ft 490 kts 262°
2026-04-25 09:11 22.84869 71.10376 35831 ft 490 kts 262°
2026-04-25 09:11 22.83776 71.03070 35833 ft 491 kts 262°
2026-04-25 09:12 22.82681 70.95779 35833 ft 491 kts 262°
2026-04-25 09:12 22.81580 70.88470 35842 ft 490 kts 262°
2026-04-25 09:13 22.80919 70.81149 35848 ft 488 kts 271°
2026-04-25 09:13 22.81319 70.73823 35844 ft 486 kts 276°
2026-04-25 09:14 22.81845 70.66515 35850 ft 486 kts 276°
2026-04-25 09:14 22.82338 70.59206 35845 ft 486 kts 275°
2026-04-25 09:15 22.82801 70.51884 35849 ft 486 kts 275°
2026-04-25 09:15 22.83254 70.44568 35852 ft 486 kts 275°
2026-04-25 09:16 22.83705 70.37255 35861 ft 486 kts 275°
2026-04-25 09:16 22.84151 70.29995 35852 ft 486 kts 275°
2026-04-25 09:17 22.84818 70.19044 35855 ft 485 kts 275°
2026-04-25 09:18 22.85258 70.11748 35850 ft 485 kts 275°
2026-04-25 09:18 22.85695 70.04444 35847 ft 485 kts 275°
2026-04-25 09:19 22.86128 69.97156 35850 ft 484 kts 275°
2026-04-25 09:19 22.86558 69.89868 35854 ft 484 kts 275°
2026-04-25 09:20 22.86984 69.82571 35849 ft 485 kts 275°
2026-04-25 09:20 22.87408 69.75278 35839 ft 484 kts 275°
2026-04-25 09:21 22.87832 69.67997 35844 ft 484 kts 275°
2026-04-25 09:21 22.88301 69.60711 35847 ft 483 kts 275°
2026-04-25 09:22 22.88780 69.53449 35845 ft 483 kts 275°
2026-04-25 09:22 22.89252 69.46183 35847 ft 483 kts 275°
2026-04-25 09:23 22.89715 69.38913 35846 ft 483 kts 275°
2026-04-25 09:23 22.90172 69.31661 35847 ft 482 kts 275°
2026-04-25 09:24 22.90627 69.24400 35849 ft 482 kts 275°
2026-04-25 09:24 22.91079 69.17145 35849 ft 482 kts 275°
2026-04-25 09:25 22.91524 69.09940 35848 ft 482 kts 275°
2026-04-25 09:25 22.91968 69.02703 35852 ft 482 kts 275°
2026-04-25 09:26 22.92410 68.95443 35852 ft 481 kts 275°
2026-04-25 09:26 22.92847 68.88205 35851 ft 481 kts 275°
2026-04-25 09:27 22.93281 68.80964 35856 ft 481 kts 275°
2026-04-25 09:27 22.93711 68.73731 35859 ft 481 kts 275°
2026-04-25 09:28 22.94138 68.66498 35858 ft 480 kts 275°
2026-04-25 09:28 22.94562 68.59263 35857 ft 480 kts 275°
2026-04-25 09:29 22.94982 68.52029 35856 ft 480 kts 275°
2026-04-25 09:29 22.95399 68.44804 35856 ft 480 kts 275°
2026-04-25 09:30 22.95802 68.37571 35859 ft 480 kts 273°
2026-04-25 09:30 22.95867 68.30325 35854 ft 481 kts 271°
2026-04-25 09:31 22.95834 68.23065 35858 ft 481 kts 271°
2026-04-25 09:31 22.95817 68.15856 35859 ft 481 kts 271°
2026-04-25 09:32 22.95816 68.08602 35856 ft 481 kts 271°
2026-04-25 09:32 22.95815 68.01338 35858 ft 481 kts 271°
2026-04-25 09:33 22.95809 67.94085 35856 ft 481 kts 271°
2026-04-25 09:33 22.95800 67.86817 35858 ft 481 kts 271°
2026-04-25 09:34 22.95810 67.79553 35857 ft 481 kts 271°
2026-04-25 09:34 22.95831 67.72292 35857 ft 481 kts 271°
2026-04-25 09:35 22.95847 67.65029 35859 ft 481 kts 271°
2026-04-25 09:35 22.95856 67.57773 35856 ft 481 kts 271°
2026-04-25 09:36 22.95862 67.50544 35857 ft 482 kts 271°
2026-04-25 09:36 22.95864 67.43280 35857 ft 482 kts 271°
2026-04-25 09:37 22.95863 67.36013 35858 ft 482 kts 271°
2026-04-25 09:37 22.95859 67.28728 35861 ft 482 kts 271°
2026-04-25 09:38 22.95851 67.21457 35859 ft 482 kts 271°
2026-04-25 09:38 22.95840 67.14174 35860 ft 483 kts 271°
2026-04-25 09:39 22.95826 67.06888 35862 ft 483 kts 271°
2026-04-25 09:39 22.95809 66.99599 35861 ft 483 kts 271°
2026-04-25 09:40 22.95826 66.88661 35860 ft 483 kts 272°
2026-04-25 09:40 22.95882 66.81364 35862 ft 483 kts 272°
2026-04-25 09:41 22.95931 66.74065 35862 ft 484 kts 272°
2026-04-25 09:41 22.95970 66.66770 35864 ft 484 kts 272°
2026-04-25 09:42 22.96003 66.59471 35863 ft 484 kts 272°
2026-04-25 09:42 22.96033 66.52183 35861 ft 483 kts 272°
2026-04-25 09:43 22.96060 66.44890 35865 ft 486 kts 272°
2026-04-25 09:43 22.96085 66.37465 35874 ft 496 kts 271°
2026-04-25 09:44 22.96106 66.29915 35873 ft 505 kts 271°
2026-04-25 09:44 22.96123 66.22309 35866 ft 509 kts 271°
2026-04-25 09:45 22.96136 66.14604 35861 ft 511 kts 271°
2026-04-25 09:45 22.96146 66.06900 35860 ft 511 kts 271°
2026-04-25 09:46 22.96152 65.99200 35861 ft 509 kts 271°
2026-04-25 09:46 22.96154 65.91527 35857 ft 507 kts 271°
2026-04-25 09:47 22.96153 65.83887 35862 ft 505 kts 271°
2026-04-25 09:47 22.96149 65.76272 35864 ft 504 kts 271°
2026-04-25 09:48 22.96141 65.68670 35865 ft 503 kts 271°
2026-04-25 09:48 22.96129 65.61089 35861 ft 502 kts 271°
2026-04-25 09:49 22.96113 65.53516 35864 ft 502 kts 271°
2026-04-25 09:49 22.96094 65.45937 35864 ft 502 kts 271°
2026-04-25 09:50 22.96072 65.38364 35868 ft 502 kts 271°
2026-04-25 09:50 22.96046 65.30834 35867 ft 502 kts 271°
2026-04-25 09:51 22.96016 65.23250 35867 ft 503 kts 271°
2026-04-25 09:51 22.95983 65.15670 35868 ft 503 kts 271°
2026-04-25 09:52 22.95946 65.08092 35867 ft 503 kts 271°
2026-04-25 09:52 22.95905 65.00491 35868 ft 503 kts 271°
2026-04-25 09:53 22.95861 64.92903 35871 ft 503 kts 271°
2026-04-25 09:53 22.95815 64.85309 35867 ft 503 kts 272°
2026-04-25 09:54 22.96292 64.77772 35872 ft 500 kts 278°
2026-04-25 09:54 22.97135 64.70285 35870 ft 500 kts 279°
2026-04-25 09:55 22.97969 64.62788 35873 ft 500 kts 278°
2026-04-25 09:55 22.98767 64.55294 35869 ft 499 kts 278°
2026-04-25 09:56 22.99415 64.49081 35870 ft 499 kts 278°
2026-04-25 09:56 23.00187 64.41636 35869 ft 498 kts 278°
2026-04-25 09:57 23.00966 64.34120 35873 ft 498 kts 278°
2026-04-25 09:57 23.01737 64.26651 35868 ft 497 kts 278°
2026-04-25 09:58 23.02503 64.19196 35867 ft 497 kts 278°
2026-04-25 09:58 23.03265 64.11748 35869 ft 497 kts 278°
2026-04-25 09:59 23.04023 64.04297 35868 ft 496 kts 278°
2026-04-25 09:59 23.04778 63.96847 35871 ft 496 kts 278°
2026-04-25 10:00 23.05530 63.89397 35871 ft 496 kts 278°
2026-04-25 10:00 23.06287 63.81956 35871 ft 496 kts 278°
2026-04-25 10:01 23.07069 63.74511 35872 ft 496 kts 278°
2026-04-25 10:01 23.07850 63.67067 35866 ft 496 kts 278°
2026-04-25 10:02 23.08624 63.59629 35872 ft 496 kts 278°
2026-04-25 10:02 23.09393 63.52182 35874 ft 496 kts 278°
2026-04-25 10:03 23.10158 63.44727 35871 ft 496 kts 278°
2026-04-25 10:03 23.10920 63.37273 35873 ft 496 kts 278°
2026-04-25 10:04 23.11670 63.29899 35870 ft 496 kts 278°
2026-04-25 10:04 23.12427 63.22420 35871 ft 496 kts 278°
2026-04-25 10:05 23.13177 63.14974 35875 ft 496 kts 278°
2026-04-25 10:05 23.13925 63.07517 35873 ft 496 kts 278°
2026-04-25 10:06 23.14669 63.00063 35872 ft 496 kts 278°
2026-04-25 10:06 23.15407 62.92634 35872 ft 495 kts 277°
2026-04-25 10:07 23.16146 62.85189 35874 ft 495 kts 278°
2026-04-25 10:07 23.17607 62.77918 35876 ft 492 kts 289°
2026-04-25 10:08 23.19698 62.70854 35878 ft 491 kts 289°
2026-04-25 10:08 23.21775 62.63782 35873 ft 491 kts 289°
2026-04-25 10:09 23.23803 62.56755 35875 ft 490 kts 288°
2026-04-25 10:09 23.25827 62.49679 35873 ft 489 kts 288°
2026-04-25 10:10 23.27844 62.42608 35874 ft 489 kts 288°
2026-04-25 10:10 23.29855 62.35549 35872 ft 489 kts 288°
2026-04-25 10:11 23.31865 62.28482 35872 ft 489 kts 289°
2026-04-25 10:11 23.33873 62.21414 35871 ft 489 kts 289°
2026-04-25 10:12 23.35876 62.14345 35873 ft 489 kts 289°
2026-04-25 10:13 23.38875 62.03742 35874 ft 489 kts 289°
2026-04-25 10:13 23.40870 61.96668 35875 ft 489 kts 289°
2026-04-25 10:14 23.42863 61.89592 35873 ft 489 kts 289°
2026-04-25 10:14 23.44854 61.82507 35875 ft 489 kts 289°
2026-04-25 10:15 23.46840 61.75427 35872 ft 488 kts 288°
2026-04-25 10:15 23.48822 61.68348 35875 ft 488 kts 288°
2026-04-25 10:16 23.50795 61.61289 35872 ft 488 kts 288°
2026-04-25 10:16 23.52756 61.54259 35875 ft 487 kts 288°
2026-04-25 10:17 23.54720 61.47201 35872 ft 487 kts 288°
2026-04-25 10:17 23.56682 61.40142 35872 ft 486 kts 288°
2026-04-25 10:18 23.58640 61.33079 35871 ft 486 kts 288°
2026-04-25 10:18 23.60591 61.26031 35873 ft 485 kts 288°
2026-04-25 10:19 23.62537 61.18988 35870 ft 485 kts 288°
2026-04-25 10:19 23.64480 61.11939 35874 ft 485 kts 288°
2026-04-25 10:20 23.66420 61.04891 35872 ft 485 kts 288°
2026-04-25 10:20 23.68354 60.97847 35871 ft 484 kts 288°
2026-04-25 10:21 23.70272 60.90851 35872 ft 484 kts 288°
2026-04-25 10:21 23.72198 60.83810 35874 ft 484 kts 288°
2026-04-25 10:22 23.74122 60.76765 35871 ft 484 kts 288°
2026-04-25 10:22 23.76043 60.69717 35874 ft 484 kts 288°
2026-04-25 10:23 23.77961 60.62663 35871 ft 484 kts 288°
2026-04-25 10:23 23.79874 60.55615 35870 ft 484 kts 288°
2026-04-25 10:24 23.81785 60.48560 35868 ft 484 kts 288°
2026-04-25 10:24 23.83690 60.41515 35871 ft 484 kts 288°
2026-04-25 10:25 23.85593 60.34464 35868 ft 483 kts 288°
2026-04-25 10:25 23.87488 60.27426 35873 ft 483 kts 288°
2026-04-25 10:26 23.89377 60.20400 35868 ft 482 kts 287°
2026-04-25 10:26 23.91261 60.13376 35871 ft 481 kts 287°
2026-04-25 10:27 23.93135 60.06374 35868 ft 479 kts 287°
2026-04-25 10:27 23.95005 59.99375 35868 ft 478 kts 287°
2026-04-25 10:28 23.96864 59.92405 35870 ft 477 kts 287°
2026-04-25 10:28 23.98717 59.85440 35866 ft 477 kts 287°
2026-04-25 10:29 24.00566 59.78478 35871 ft 476 kts 287°
2026-04-25 10:29 24.02411 59.71519 35876 ft 476 kts 287°
2026-04-25 10:30 24.04240 59.64605 35867 ft 476 kts 287°
2026-04-25 10:30 24.06075 59.57655 35866 ft 476 kts 287°
2026-04-25 10:31 24.07908 59.50696 35871 ft 476 kts 287°
2026-04-25 10:31 24.09740 59.43732 35871 ft 476 kts 287°
2026-04-25 10:32 24.11571 59.36754 35865 ft 477 kts 287°
2026-04-25 10:32 24.13388 59.29779 35867 ft 477 kts 286°
2026-04-25 10:33 24.14965 59.22708 35869 ft 478 kts 284°
2026-04-25 10:33 24.16434 59.15609 35868 ft 478 kts 284°
2026-04-25 10:34 24.17928 59.08512 35869 ft 478 kts 284°
2026-04-25 10:34 24.19447 59.01428 35808 ft 479 kts 283°
2026-04-25 10:35 24.20989 58.94269 35865 ft 487 kts 283°
2026-04-25 10:35 24.22541 58.87044 35858 ft 480 kts 283°
2026-04-25 10:35 24.23295 58.83523 35849 ft 469 kts 283°
2026-04-25 10:36 24.24035 58.80062 35856 ft 466 kts 283°
2026-04-25 10:36 24.25509 58.73158 35868 ft 465 kts 283°
2026-04-25 10:37 24.26980 58.66252 35866 ft 465 kts 283°
2026-04-25 10:37 24.28449 58.59337 35868 ft 466 kts 283°
2026-04-25 10:38 24.29914 58.52426 35865 ft 466 kts 283°
2026-04-25 10:38 24.31377 58.45507 35867 ft 466 kts 283°
2026-04-25 10:39 24.32827 58.38638 35867 ft 466 kts 283°
2026-04-25 10:39 24.34282 58.31724 35866 ft 465 kts 283°
2026-04-25 10:40 24.35734 58.24806 35867 ft 465 kts 283°
2026-04-25 10:40 24.37183 58.17891 35866 ft 465 kts 283°
2026-04-25 10:41 24.38627 58.10982 35866 ft 464 kts 283°
2026-04-25 10:41 24.39823 58.05242 35863 ft 464 kts 283°
2026-04-25 10:42 24.41259 57.98341 35865 ft 463 kts 283°
2026-04-25 10:42 24.42689 57.91452 35864 ft 463 kts 283°
2026-04-25 10:43 24.44114 57.84570 35863 ft 462 kts 283°
2026-04-25 10:43 24.45536 57.77686 35864 ft 462 kts 283°
2026-04-25 10:44 24.46953 57.70809 35864 ft 462 kts 283°
2026-04-25 10:44 24.48367 57.63929 35863 ft 461 kts 283°
2026-04-25 10:45 24.49775 57.57065 35862 ft 461 kts 283°
2026-04-25 10:45 24.51180 57.50197 35862 ft 461 kts 283°
2026-04-25 10:46 24.52576 57.43356 35391 ft 461 kts 283°
2026-04-25 10:46 24.53278 57.39911 34714 ft 462 kts 282°
2026-04-25 10:46 24.53979 57.36463 33916 ft 464 kts 282°
2026-04-25 10:46 24.54685 57.32989 32962 ft 467 kts 282°
2026-04-25 10:47 24.55392 57.29499 32040 ft 470 kts 282°
2026-04-25 10:47 24.56106 57.25975 31101 ft 473 kts 282°
2026-04-25 10:47 24.56813 57.22485 30309 ft 474 kts 282°
2026-04-25 10:47 24.57527 57.18950 29580 ft 471 kts 282°
2026-04-25 10:48 24.58235 57.15446 28832 ft 468 kts 282°
2026-04-25 10:48 24.58936 57.11972 28137 ft 464 kts 282°
2026-04-25 10:48 24.59632 57.08520 27482 ft 460 kts 282°
2026-04-25 10:48 24.60318 57.05110 26835 ft 456 kts 282°
2026-04-25 10:49 24.60998 57.01724 26202 ft 452 kts 282°
2026-04-25 10:49 24.61672 56.98366 25578 ft 449 kts 282°
2026-04-25 10:49 24.62340 56.95031 24953 ft 446 kts 282°
2026-04-25 10:49 24.63004 56.91714 24323 ft 443 kts 282°
2026-04-25 10:50 24.63664 56.88415 23703 ft 441 kts 282°
2026-04-25 10:50 24.64422 56.85162 23221 ft 435 kts 286°
2026-04-25 10:50 24.65432 56.82028 23024 ft 439 kts 291°
2026-04-25 10:50 24.66702 56.78980 22880 ft 437 kts 294°
2026-04-25 10:51 24.68000 56.75989 22873 ft 431 kts 294°
2026-04-25 10:51 24.69288 56.73022 22717 ft 427 kts 294°
2026-04-25 10:51 24.70558 56.70083 22163 ft 425 kts 294°
2026-04-25 10:51 24.71803 56.67190 21203 ft 413 kts 294°
2026-04-25 10:52 24.73019 56.64346 19906 ft 411 kts 294°
2026-04-25 10:52 24.74232 56.61501 18937 ft 409 kts 293°
2026-04-25 10:52 24.75441 56.58659 18577 ft 415 kts 293°
2026-04-25 10:52 24.76674 56.55751 18113 ft 423 kts 293°
2026-04-25 10:53 24.77922 56.52812 17568 ft 423 kts 293°
2026-04-25 10:53 24.79162 56.49890 17082 ft 419 kts 293°
2026-04-25 10:53 24.80389 56.47002 16672 ft 413 kts 293°
2026-04-25 10:53 24.81580 56.44195 16221 ft 408 kts 293°
2026-04-25 10:54 24.82774 56.41380 15773 ft 404 kts 293°
2026-04-25 10:54 24.83576 56.39485 15457 ft 402 kts 293°
2026-04-25 10:54 24.85132 56.35810 14864 ft 398 kts 293°
2026-04-25 10:54 24.86297 56.33057 14417 ft 395 kts 293°
2026-04-25 10:55 24.87453 56.30323 13965 ft 393 kts 293°
2026-04-25 10:55 24.88605 56.27593 13491 ft 392 kts 293°
2026-04-25 10:55 24.89751 56.24877 13017 ft 390 kts 293°
2026-04-25 10:55 24.90888 56.22183 12557 ft 386 kts 293°
2026-04-25 10:56 24.92015 56.19511 12107 ft 382 kts 293°
2026-04-25 10:56 24.93126 56.16874 11683 ft 378 kts 293°
2026-04-25 10:56 24.94225 56.14263 11247 ft 374 kts 293°
2026-04-25 10:56 24.95317 56.11675 10828 ft 370 kts 293°
2026-04-25 10:57 24.96394 56.09116 10394 ft 367 kts 293°
2026-04-25 10:57 24.97376 56.06558 10206 ft 355 kts 288°
2026-04-25 10:57 24.98177 56.04021 9521 ft 346 kts 286°
2026-04-25 10:57 24.98889 56.01585 9209 ft 322 kts 285°
2026-04-25 10:58 24.99549 55.99317 8892 ft 300 kts 286°
2026-04-25 10:58 25.00167 55.97199 8682 ft 281 kts 286°
2026-04-25 10:58 25.00765 55.95164 8755 ft 279 kts 286°
2026-04-25 10:58 25.01366 55.93133 8721 ft 278 kts 286°
2026-04-25 10:59 25.01957 55.91155 8336 ft 264 kts 286°
2026-04-25 10:59 25.02515 55.89291 8017 ft 248 kts 286°
2026-04-25 10:59 25.03040 55.87536 7683 ft 234 kts 286°
2026-04-25 10:59 25.03541 55.85855 7361 ft 233 kts 287°
2026-04-25 11:00 25.04041 55.84183 7040 ft 228 kts 287°
2026-04-25 11:00 25.04537 55.82526 6695 ft 226 kts 287°
2026-04-25 11:00 25.05024 55.80898 6358 ft 224 kts 287°
2026-04-25 11:00 25.05509 55.79276 6044 ft 221 kts 287°
2026-04-25 11:01 25.05980 55.77703 6026 ft 215 kts 287°
2026-04-25 11:01 25.06451 55.76128 6019 ft 217 kts 287°
2026-04-25 11:01 25.06925 55.74544 5831 ft 216 kts 287°
2026-04-25 11:01 25.07391 55.72990 5513 ft 211 kts 288°
2026-04-25 11:02 25.07849 55.71458 5138 ft 209 kts 288°
2026-04-25 11:02 25.08301 55.69947 4799 ft 206 kts 289°
2026-04-25 11:02 25.08748 55.68451 4462 ft 204 kts 289°
2026-04-25 11:02 25.09192 55.66963 4119 ft 202 kts 290°
2026-04-25 11:03 25.09613 55.65544 4020 ft 189 kts 289°
2026-04-25 11:03 25.10034 55.64146 4028 ft 191 kts 292°
2026-04-25 11:03 25.10636 55.62874 4004 ft 180 kts 302°
2026-04-25 11:03 25.11254 55.61761 4005 ft 163 kts 303°
2026-04-25 11:04 25.11832 55.60725 3990 ft 155 kts 302°
2026-04-25 11:04 25.12388 55.59725 3996 ft 155 kts 302°
2026-04-25 11:04 25.12962 55.58692 3784 ft 158 kts 303°
2026-04-25 11:04 25.13342 55.58009 3680 ft 157 kts 302°
2026-04-25 11:05 25.14097 55.56641 3388 ft 154 kts 302°
2026-04-25 11:05 25.14655 55.55636 3237 ft 153 kts 302°
2026-04-25 11:05 25.15205 55.54636 3026 ft 152 kts 303°
2026-04-25 11:05 25.15765 55.53629 2860 ft 157 kts 303°
2026-04-25 11:06 25.16326 55.52620 2684 ft 156 kts 303°
2026-04-25 11:06 25.16888 55.51602 2447 ft 152 kts 302°
2026-04-25 11:06 25.17418 55.50638 2252 ft 144 kts 302°
2026-04-25 11:06 25.17958 55.49664 2087 ft 150 kts 304°
2026-04-25 11:07 25.18508 55.48678 1883 ft 151 kts 303°
2026-04-25 11:07 25.19042 55.47706 1700 ft 147 kts 303°
2026-04-25 11:07 25.19571 55.46750 1516 ft 147 kts 303°
2026-04-25 11:07 25.20115 55.45765 1320 ft 152 kts 304°
2026-04-25 11:08 25.20659 55.44784 1164 ft 148 kts 304°
2026-04-25 11:08 25.21180 55.43821 982 ft 146 kts 304°
2026-04-25 11:08 25.21702 55.42861 740 ft 144 kts 303°
2026-04-25 11:08 25.22227 55.41951 540 ft 138 kts 302°
2026-04-25 11:09 25.22727 55.41050 378 ft 140 kts 301°
2026-04-25 11:09 25.23244 55.40110 197 ft 146 kts 302°
2026-04-25 11:09 25.23778 55.39149 48 ft 144 kts 301°
2026-04-25 11:09 25.24254 55.38284 37 ft 117 kts 304°
2026-04-25 11:10 25.24587 55.37694 33 ft 64 kts 301°
2026-04-25 11:10 25.24708 55.37475 33 ft 49 kts 301°
2026-04-25 11:10 25.24785 55.37151 32 ft 16 kts 274°
2026-04-25 11:10 25.24790 55.37022 29 ft 18 kts 272°
2026-04-25 11:11 25.24814 55.36926 28 ft 8 kts 297°
2026-04-25 11:11 25.24836 55.36869 28 ft 9 kts 291°
2026-04-25 11:11 25.24874 55.36731 27 ft 31 kts 287°
2026-04-25 11:11 25.24980 55.36509 27 ft 32 kts 302°
2026-04-25 11:12 25.25095 55.36305 27 ft 30 kts 302°
2026-04-25 11:12 25.25204 55.36112 27 ft 30 kts 302°
2026-04-25 11:12 25.25315 55.35916 29 ft 30 kts 301°
2026-04-25 11:12 25.25425 55.35718 29 ft 30 kts 302°
2026-04-25 11:13 25.25483 55.35500 30 ft 30 kts 274°
2026-04-25 11:13 25.25528 55.35349 31 ft 10 kts 287°
2026-04-25 11:13 25.25484 55.35294 31 ft 7 kts 208°
2026-04-25 11:13 25.25466 55.35283 30 ft 2 kts 210°
2026-04-25 11:14 25.25454 55.35275 29 ft 0 kts 211°